JY1SAT (JO-97)

Last updated on Sun Aug 09 2026 00:03:15 GMT+0000 (Coordinated Universal Time)

1 43803U 18099AX 26220.13479886 .00009964 00000+0 29320-3 0 9999 2 43803 97.4093 283.1960 0007138 91.0679 269.1382 15.35253042421594
UTC large
Height (km)
Speed (km/s)
/
Latitude / Longitude
Inclination (degrees)
Orbital Period (minutes)
Azimuth
Elevation
Range (km)
Doppler Factor

Next 0 passes for location: London (51.5072 / 0.1276)

No passes found over London.
JY1SAT (JO-97)